Regional Weather Roundup
Issued by NWS Newport/Morehead, NC

Current Version | Previous Version | Graphics & Text | Print | Product List | Glossary Off
Versions: 1 2 3 4 5 6 7 8 9 10 11 12 13 14 15 16 17 18 19 20 21 22 23 24 25 26 27 28 29 30 31 32 33 34 35 36 37 38 39 40 41 42 43 44 45 46

000
ASUS42 KMHX 200214
RWRMHX
WEATHER ROUNDUP FOR EASTERN NORTH CAROLINA
NATIONAL WEATHER SERVICE NEWPORT/MOREHEAD CITY NC
1000 PM EDT SAT AUG 19 2017

NOTE: "FAIR" INDICATES FEW OR NO CLOUDS BELOW 12,000 FEET
WITH NO SIGNIFICANT WEATHER AND/OR OBSTRUCTIONS TO VISIBILITY

NCZ015>017-031-032-045>047-102-103-200300-
NORTH COAST

CITY           SKY/WX    TMP DP  RH WIND       PRES   REMARKS
EDENTON        CLOUDY    81  73  78 SW7       29.97R
ELIZABETH CITY CLOUDY    78  77  96 S6        29.96S
KITTY HAWK     CLOUDY    76  73  92 CALM      29.95R
MANTEO         CLOUDY    79  74  86 SW10      29.96F

$$

NCZ045>047-081-094-103-104-200300-
CENTRAL COAST

CITY           SKY/WX    TMP DP  RH WIND       PRES   REMARKS
FRISCO         CLOUDY    80  78  94 SW7       29.96S

$$

NCZ095-097-098-100-101-200300-
SOUTHERN COAST

CITY           SKY/WX    TMP DP  RH WIND       PRES   REMARKS
BEAUFORT       CLEAR     79  78  97 SW6       29.97R
CEDAR ISLAND   NOT AVBL
JACKSONVILLE   CLEAR     76  76 100 CALM      29.97R
PINEY ISLAND   PTCLDY   N/A N/A N/A W5        29.97R
WILMINGTON     MOCLDY    77  75  93 CALM      29.98R


$$

NCZ011>013-027>030-043-044-078>080-089-090>093-098-200300-
COASTAL PLAIN

CITY           SKY/WX    TMP DP  RH WIND       PRES   REMARKS
AHOSKIE          N/A     75  75  99 CALM      29.96R
CLINTON        CLEAR     76  75  98 CALM      29.98R
ELIZABETHTOWN  NOT AVBL
GOLDSBORO      CLEAR     78  78 100 CALM      29.96R
GREENVILLE     CLEAR     77  73  88 S3        29.99R
HAVELOCK       PTCLDY    75  73  93 NW3       29.98S
KENANSVILLE    CLEAR     73  73 100 CALM      29.98R
KINSTON        NOT AVBL
NEW BERN       CLEAR     75  75 100 CALM      29.99R
RICHLANDS      PTCLDY    73  73 100 CALM      29.99R FOG
ROCKY MOUNT    CLEAR     77  74  90 S5        29.97R
WASHINGTON     CLOUDY    75  73  91 S3        29.98R
WHITEVILLE     PTCLDY    76  74  94 CALM      29.97R

$$

AMZ130-135-150-152-154-156-158-170-250-252-270-ANZ085-086-088-633-658-670-200300-
MARINE OBSERVATIONS

STATION/POSITION TIME  TEMP    WIND        PRES    WAVE   SWELL
                       AIR SEA DIR/SP/G            HT/PER HT/PER
                 (UTC) (F)     (DEG/KT/KT) (MB)    (FT/S) (FT/S)
CHESAPEAKE LIGHT NOT AVBL
64 E VA BEACH    0150   78 79  160/  6/  8 1014.7    3/ 6   3/ 6
DUCK             0142   80 72  250/  6/  6 1014.2
2 E DUCK         0130      79                N/A     1/ 9
OREGON INLET     0142   79 82  240/  4/  7 1014.7
13E OREGON INLT  0148      80                N/A     3/ 6   3/ 6
HATTERAS CG      0142   79 81  200/  8/ 13 1013.9
DIAMOND BUOY     0150   83 83  220/ 16/ 19 1014.7    4/ 9   2/ 9
CAPE LOOKOUT     0200   80     210/  7/  8 1014.4
BEAUFORT LAB     0142   81 82  220/  4/  7 1014.0
30 SE NEW RVR IN 0108   80 84  200/ 10/ 12 1014.6
30 SE NEW RVR IN 0143      84                N/A     3/ 6
27 SE WRIGHTSVLE 0108   82 84  170/  6/ 10 1014.6
5 SE WRIGHTSVLE  0108   81 83  200/  4/  8 1014.4
225 S CAPE HAT   0150   84 84  170/ 10/ 12 1017.1    5/ 8   5/ 8
41 SE CHARLESTON 0200   83 85  200/ 12/ 14 1014.4

$$




USA.gov is the U.S. government's official web portal to all federal, state and local government web resources and services.